Location: Baturyn
(53.6332°N, 113.5041°W)
Time: 04:46:44
(UTC+00:00)

N. Korean satellite - Pass Details

Date: 06 December 2021
Orbit: 446 x 492 km, 97.3° (Epoch: 16 January)

Event Time Altitude Azimuth Distance (km) Brightness Sun altitude
Rises 00:17:00 0° 183° (S) 2,524 10.6 -8.5°
Reaches altitude 10° 00:19:10 10° 191° (SSW) 1,642 9.8 -8.8°
Maximum altitude 00:22:29 39° 262° (W) 726 8.1 -9.2°
Drops below altitude 10° 00:25:47 10° 333° (NNW) 1,629 9.3 -9.7°
Sets 00:27:56 0° 341° (NNW) 2,504 10.1 -10.0°
